Tracking 19288 objects as of 20-Nov-2018
HD Live streaming from Space Station
objects crossing your sky now

KYOKKO 1 (EXOS A)

Track KYOKKO 1 (EXOS A) now!
10-day predictions
KYOKKO 1 (EXOS A) is classified as:


NORAD ID: 10664
Int'l Code: 1978-014A
Perigee: 642.5 km
Apogee: 3,954.8 km
Inclination: 65.4 °
Period: 133.9 minutes
Semi major axis: 8669 km
RCS: 1.0778 m2 (large)
Launch date: February 4, 1978
Source: Japan (JPN)
Launch site: KAGOSHIMA SPACE CENTER UNIVERSITY OF TOKYO (KSCUT)
aabbcc
Your satellite tracking list
Your tracking list is empty




NASA's NSSDC Master Catalog

Two Line Element Set (TLE):
1 10664U 78014A   18323.90060580 -.00000017 +00000-0 +26805-4 0  9996
2 10664 065.3676 190.0558 1910285 325.8056 023.3048 10.75478740585264
Source of the keplerian elements: AFSPC